sat.trackr.live / text

‹ back to catalog

PIESAT D

NORAD 56156 · 2023-047D

PAYLOAD ACTIVE UNKNOWN

§ Identity

Operator
Country
PRC
Launch date
2023-03-30
Launch site
TAISC
Launch vehicle
Mass (kg)
RCS (m²)

External: N2YO · Heavens-Above · Gunter

§ Orbital elements

Epoch: 2026-09-21T11:57:45.818208Z

Period
95.09 min
Inclination
97.5031°
Eccentricity
0.0001476
Mean motion
15.14289972 rev/d
Perigee alt
522.1 km
Apogee alt
524.2 km
Semi-major
6,901.3 km
B*
7.7858e-5
RAAN
90.2529°
Arg perigee
87.5593°
Mean anomaly
272.5807°
Rev number
19,237

§ Raw data

PIESAT D1 56156U 23047D   26264.49844697  .00001359  00000+0  77858-4 0  99962 56156  97.5031  90.2529 0001476  87.5593 272.5807 15.14289972192373

JSON: /api/v1/satellites/56156 · /tle

For live sub-satellite position, see the globe view (requires WebGL).

§ Visibility from observer

Set your observer location to see the next 7 days of passes ≥ 10°. The values pass through the URL so the page stays shareable.

No JS? Fill the form by hand. The geolocation button needs JavaScript.